M I D A S
Marine Information and Data Acquisition System
Tripno 1107 of the Zeeleeuw from 2006-06-01 04:00:15 to 2006-06-01 19:43:05
Back to CruiseResearch ActivitiesStationsMapUnderway DataData graphs

EquipmentUnitsComment
TimeDGPSUTC
LatitudeDGPSDM.mWGS84
LongitudeDGPSDM.mWGS84
HeadingGyrodeg 
SOGDGPSknotsSpeed over ground
COGDGPSdegCourse over ground
DepthEcho soundermeters200 kHz
Missing or incorrect values are displayed as -999
Navigation data collected by the RV Zeeleeuw from 2006-06-01 03:57:29 to 2006-06-01 19:43:58
                                                                                    Next 1000 lines
Time Latitude Longitude Heading SOG COG Depth
2006-06-01 03:57:38 51°13.602 2°56.098 110.8 0.5 293 8.4
2006-06-01 03:57:43 51°13.602 2°56.096 110.5 0.8 289 8.5
2006-06-01 03:57:48 51°13.602 2°56.094 110.3 1 292 8.4
2006-06-01 03:57:53 51°13.603 2°56.092 110.3 1.2 296 8.3
2006-06-01 03:57:58 51°13.604 2°56.089 110.5 1.4 291 8.5
2006-06-01 03:58:04 51°13.605 2°56.085 110.6 1.6 290 -999
2006-06-01 03:58:09 51°13.606 2°56.081 110.7 1.8 291 -999
2006-06-01 03:58:14 51°13.607 2°56.077 110.7 1.9 291 -999
2006-06-01 03:58:19 51°13.608 2°56.073 110.3 2.1 291 -999
2006-06-01 03:58:24 51°13.609 2°56.068 109.7 2.3 288 -999
2006-06-01 03:58:29 51°13.61 2°56.063 109 2.4 290 -999
2006-06-01 03:58:34 51°13.611 2°56.057 108.2 2.5 289 -999
2006-06-01 03:58:39 51°13.612 2°56.051 107.5 2.6 284 -999
2006-06-01 03:58:44 51°13.613 2°56.045 107 2.9 285 -999
2006-06-01 03:58:49 51°13.614 2°56.039 107 3.1 284 -999
2006-06-01 03:58:54 51°13.615 2°56.031 107.2 3.3 284 -999
2006-06-01 03:58:59 51°13.616 2°56.024 108 3.5 284 -999
2006-06-01 03:59:04 51°13.618 2°56.016 108.8 3.7 285 -999
2006-06-01 03:59:09 51°13.619 2°56.007 109.9 3.8 286 -999
2006-06-01 03:59:14 51°13.62 2°55.999 111.5 3.9 286 -999
2006-06-01 03:59:19 51°13.622 2°55.991 113.2 4 288 -999
2006-06-01 03:59:24 51°13.624 2°55.982 115.1 4 289 -999
2006-06-01 03:59:29 51°13.626 2°55.974 117.1 4 290 -999
2006-06-01 03:59:34 51°13.628 2°55.966 119.1 4 293 -999
2006-06-01 03:59:39 51°13.631 2°55.958 121 4 294 -999
2006-06-01 03:59:44 51°13.633 2°55.95 123 4 297 -999
2006-06-01 03:59:49 51°13.636 2°55.943 124.8 4 299 -999
2006-06-01 03:59:54 51°13.639 2°55.935 126.8 4 300 -999
2006-06-01 03:59:59 51°13.642 2°55.928 128.6 4 303 -999
2006-06-01 04:00:04 51°13.645 2°55.92 130.6 4.1 305 -999
2006-06-01 04:00:09 51°13.649 2°55.913 132.4 4.1 308 -999
2006-06-01 04:00:14 51°13.652 2°55.906 133.8 4.1 309 -999
2006-06-01 04:00:19 51°13.656 2°55.899 135.1 4.1 310 -999
2006-06-01 04:00:24 51°13.66 2°55.892 135.9 4.2 311 -999
2006-06-01 04:00:29 51°13.664 2°55.885 136.5 4.3 313 -999
2006-06-01 04:00:34 51°13.668 2°55.878 137.1 4.3 312 -999
2006-06-01 04:00:39 51°13.672 2°55.871 137.4 4.5 314 -999
2006-06-01 04:00:44 51°13.677 2°55.864 137.6 4.5 315 -999
2006-06-01 04:00:49 51°13.681 2°55.857 137.7 4.4 315 -999
2006-06-01 04:00:54 51°13.685 2°55.85 137.7 4.3 315 -999
2006-06-01 04:00:59 51°13.689 2°55.844 137.3 4.2 314 -999
2006-06-01 04:01:04 51°13.693 2°55.837 136.8 4.1 314 -999
2006-06-01 04:01:09 51°13.697 2°55.831 136.1 4.1 314 -999
2006-06-01 04:01:14 51°13.701 2°55.824 135.3 4 313 -999
2006-06-01 04:01:19 51°13.704 2°55.817 134.1 4 312 -999
2006-06-01 04:01:24 51°13.708 2°55.811 133 4.1 312 -999
2006-06-01 04:01:29 51°13.712 2°55.804 132 4.1 310 -999
2006-06-01 04:01:34 51°13.715 2°55.797 131 4.1 309 -999
2006-06-01 04:01:40 51°13.72 2°55.788 129.9 4.1 308 -999
2006-06-01 04:01:44 51°13.722 2°55.782 128.9 4.2 307 -999
2006-06-01 04:01:49 51°13.726 2°55.775 127.8 4.2 306 -999
2006-06-01 04:01:54 51°13.729 2°55.767 126.7 4.2 305 -999
2006-06-01 04:02:00 51°13.734 2°55.758 125.5 4.3 304 -999
2006-06-01 04:02:04 51°13.736 2°55.752 124.3 4.2 303 5.9
2006-06-01 04:02:09 51°13.739 2°55.745 123.3 3.9 302 -999
2006-06-01 04:02:13 51°13.741 2°55.739 122.5 3.7 301 -999
2006-06-01 04:02:19 51°13.744 2°55.731 121.4 3.6 299 -999
2006-06-01 04:02:23 51°13.746 2°55.726 120.3 3.4 299 -999
2006-06-01 04:02:28 51°13.747 2°55.719 119.6 3.2 296 13
2006-06-01 04:02:33 51°13.749 2°55.713 119 3 297 12.9
2006-06-01 04:02:38 51°13.751 2°55.708 118.5 2.5 295 4.6
2006-06-01 04:02:43 51°13.752 2°55.704 117.3 2.1 295 12.8
2006-06-01 04:02:49 51°13.753 2°55.701 115.5 1.4 291 12.8
2006-06-01 04:02:54 51°13.753 2°55.7 113.2 0.9 295 12.8
2006-06-01 04:02:57 51°13.753 2°55.7 110.3 0.2 305 12.7
2006-06-01 04:03:03 51°13.753 2°55.7 106.7 0.2 64 12.8
2006-06-01 04:03:09 51°13.753 2°55.702 102.2 0.7 93 12.8
2006-06-01 04:03:13 51°13.753 2°55.704 96.6 1 91 12.9
2006-06-01 04:03:17 51°13.753 2°55.706 90.8 0.9 83 13
2006-06-01 04:03:23 51°13.753 2°55.708 86.9 0.8 88 12.9
2006-06-01 04:03:29 51°13.753 2°55.709 84.4 0.4 104 12.9
2006-06-01 04:03:33 51°13.753 2°55.709 82.1 0.2 150 12.9
2006-06-01 04:03:39 51°13.753 2°55.708 80 0.4 226 12.9
2006-06-01 04:03:43 51°13.752 2°55.707 78.4 0.7 237 12.9
2006-06-01 04:03:48 51°13.751 2°55.705 77.5 1 242 12.9
2006-06-01 04:03:53 51°13.751 2°55.702 76.9 1.3 242 12.8
2006-06-01 04:03:59 51°13.75 2°55.7 76.8 1.3 243 12.8
2006-06-01 04:04:03 51°13.749 2°55.698 77 1.1 239 12.8
2006-06-01 04:04:09 51°13.749 2°55.697 77.7 0.7 235 -999
2006-06-01 04:04:14 51°13.748 2°55.696 78.1 0.4 214 -999
2006-06-01 04:04:19 51°13.748 2°55.697 76.3 0.3 116 4.7
2006-06-01 04:04:24 51°13.748 2°55.699 73.5 0.7 83 -999
2006-06-01 04:04:29 51°13.749 2°55.701 70.6 1 71 12.8
2006-06-01 04:04:32 51°13.749 2°55.702 66.1 1.2 69 4.6
2006-06-01 04:04:38 51°13.75 2°55.706 62.1 1.4 58 12.8
2006-06-01 04:04:43 51°13.751 2°55.709 56.6 1.6 57 12.9
2006-06-01 04:04:49 51°13.753 2°55.711 51.4 1.4 51 12.6
2006-06-01 04:04:53 51°13.753 2°55.713 47.4 1.1 49 12.4
2006-06-01 04:04:58 51°13.753 2°55.713 44.8 0.4 88 12.5
2006-06-01 04:05:03 51°13.753 2°55.714 41.7 0.3 169 12.4
2006-06-01 04:05:07 51°13.752 2°55.713 39 0.8 194 12.6
2006-06-01 04:05:13 51°13.75 2°55.712 37 1.3 202 12.9
2006-06-01 04:05:18 51°13.748 2°55.71 35.9 1.7 203 12.9
2006-06-01 04:05:24 51°13.745 2°55.708 35.5 2.1 205 -999
2006-06-01 04:05:29 51°13.742 2°55.706 35.3 2.1 206 -999
2006-06-01 04:05:34 51°13.739 2°55.704 36 2 205 -999
2006-06-01 04:05:39 51°13.737 2°55.703 37 1.8 206 -999
2006-06-01 04:05:44 51°13.735 2°55.701 37.8 1.5 203 -999
2006-06-01 04:05:49 51°13.734 2°55.7 37.8 1.2 204 -999
2006-06-01 04:05:53 51°13.733 2°55.7 37.5 0.7 192 -999
2006-06-01 04:05:59 51°13.733 2°55.701 35.7 0.2 169 -999
2006-06-01 04:06:04 51°13.734 2°55.702 33.8 0.3 67 13.6
2006-06-01 04:06:09 51°13.734 2°55.702 30.4 0.6 38 13.6
2006-06-01 04:06:13 51°13.735 2°55.703 26.9 0.9 31 4.5
2006-06-01 04:06:19 51°13.737 2°55.704 21.1 1.1 23 4.6
2006-06-01 04:06:23 51°13.739 2°55.705 15.9 1.5 14 -999
2006-06-01 04:06:28 51°13.741 2°55.705 10.7 1.7 7 13.1
2006-06-01 04:06:33 51°13.744 2°55.706 6.2 1.8 3 12.8
2006-06-01 04:06:38 51°13.747 2°55.705 0.6 2.1 357 4.5
2006-06-01 04:06:42 51°13.75 2°55.705 356.5 2.4 352 4.8
2006-06-01 04:06:48 51°13.754 2°55.703 352.1 2.6 348 12.9
2006-06-01 04:06:53 51°13.758 2°55.702 349.1 2.8 346 13
2006-06-01 04:06:59 51°13.763 2°55.698 345.9 3.3 339 12.9
2006-06-01 04:07:03 51°13.767 2°55.696 341 3.6 336 13.1
2006-06-01 04:07:08 51°13.772 2°55.692 337.7 4 333 13.1
2006-06-01 04:07:13 51°13.777 2°55.687 334.8 4.3 331 13.1
2006-06-01 04:07:17 51°13.781 2°55.683 333.6 4.7 330 13.2
2006-06-01 04:07:23 51°13.789 2°55.676 333.8 5 331 13.2
2006-06-01 04:07:29 51°13.797 2°55.67 334.8 5.3 332 13.2
2006-06-01 04:07:33 51°13.802 2°55.665 336 5.5 333 13.2
2006-06-01 04:07:38 51°13.809 2°55.659 336.8 5.8 333 13.3
2006-06-01 04:07:43 51°13.817 2°55.653 337.4 6 334 13.2
2006-06-01 04:07:47 51°13.823 2°55.649 337.9 6.3 334 13.1
2006-06-01 04:07:53 51°13.833 2°55.641 338.3 6.4 335 13.2
2006-06-01 04:07:57 51°13.84 2°55.637 338.7 6.6 335 13.2
2006-06-01 04:08:03 51°13.85 2°55.629 339 6.8 336 13.2
2006-06-01 04:08:08 51°13.859 2°55.623 339.5 5.7 336 13.2
2006-06-01 04:08:13 51°13.868 2°55.617 339.7 7 336 13.3
2006-06-01 04:08:19 51°13.878 2°55.609 339.6 7.2 336 13.3
2006-06-01 04:08:23 51°13.886 2°55.604 339.4 7.2 336 13.4
2006-06-01 04:08:28 51°13.895 2°55.597 338.9 7.3 335 13.4
2006-06-01 04:08:33 51°13.904 2°55.59 338.7 7.4 335 13.4
2006-06-01 04:08:39 51°13.915 2°55.582 338.2 7.4 335 13.4
2006-06-01 04:08:43 51°13.923 2°55.577 338.6 7.4 335 13.4
2006-06-01 04:08:49 51°13.935 2°55.569 339.4 7.4 336 13.4
2006-06-01 04:08:53 51°13.942 2°55.563 340.1 7.5 337 13.4
2006-06-01 04:08:58 51°13.952 2°55.557 340.4 7.5 337 13.3
2006-06-01 04:09:03 51°13.961 2°55.55 340.4 7.5 337 13.3
2006-06-01 04:09:09 51°13.972 2°55.543 340.1 7.3 337 13.3
2006-06-01 04:09:13 51°13.98 2°55.537 339.6 7.3 335 13.3
2006-06-01 04:09:19 51°13.991 2°55.529 339.3 7.1 336 13.3
2006-06-01 04:09:23 51°13.997 2°55.524 338.7 7 334 13.3
2006-06-01 04:09:29 51°14.008 2°55.516 337.9 7 335 13.3
2006-06-01 04:09:33 51°14.015 2°55.511 337.4 6.9 334 13.3
2006-06-01 04:09:39 51°14.025 2°55.503 337.3 6.8 335 13.3
2006-06-01 04:09:43 51°14.032 2°55.499 338.4 6.8 336 13.3
2006-06-01 04:09:48 51°14.04 2°55.493 339.9 6.7 337 13.3
2006-06-01 04:09:53 51°14.049 2°55.487 340.1 6.7 337 13.3
2006-06-01 04:09:58 51°14.058 2°55.481 340.2 6.6 337 13.3
2006-06-01 04:10:03 51°14.066 2°55.475 340.2 6.7 337 13.3
2006-06-01 04:10:09 51°14.076 2°55.469 339.6 6.6 337 13.3
2006-06-01 04:10:13 51°14.083 2°55.464 339.4 6.6 336 13.3
2006-06-01 04:10:19 51°14.093 2°55.457 338.9 6.6 336 13.3
2006-06-01 04:10:23 51°14.1 2°55.452 338.6 6.6 335 13.3
2006-06-01 04:10:28 51°14.108 2°55.445 338.2 6.6 335 13.3
2006-06-01 04:10:33 51°14.116 2°55.439 337.2 6.6 334 13.3
2006-06-01 04:10:39 51°14.126 2°55.431 336.7 6.6 334 13.3
2006-06-01 04:10:42 51°14.131 2°55.427 335.4 6.6 332 13.2
2006-06-01 04:10:49 51°14.142 2°55.417 334.5 6.7 331 13.3
2006-06-01 04:10:53 51°14.148 2°55.41 332.9 6.7 329 13.2
2006-06-01 04:10:57 51°14.155 2°55.404 330.8 6.8 328 13.2
2006-06-01 04:11:03 51°14.164 2°55.395 329.7 6.8 327 13.2
2006-06-01 04:11:09 51°14.174 2°55.385 329.6 6.8 328 13.2
2006-06-01 04:11:13 51°14.18 2°55.378 329.9 7 327 13.2
2006-06-01 04:11:19 51°14.19 2°55.368 330.4 7.2 327 13.2
2006-06-01 04:11:23 51°14.197 2°55.361 329.9 7.3 326 13.2
2006-06-01 04:11:28 51°14.205 2°55.351 328.4 7.4 324 13.2
2006-06-01 04:11:33 51°14.213 2°55.341 326.6 7.5 323 13.2
2006-06-01 04:11:37 51°14.22 2°55.332 324.2 7.6 321 13.2
2006-06-01 04:11:44 51°14.231 2°55.317 323.5 7.7 320 13.2
2006-06-01 04:11:49 51°14.239 2°55.305 322.9 7.9 318 13.2
2006-06-01 04:11:53 51°14.246 2°55.296 322.6 8 318 13.2
2006-06-01 04:11:58 51°14.254 2°55.283 321.3 8.1 315 13.2
2006-06-01 04:12:03 51°14.262 2°55.27 319.2 8.2 315 13.2
2006-06-01 04:12:08 51°14.27 2°55.256 316.9 8.5 312 13.3
2006-06-01 04:12:13 51°14.278 2°55.242 316.7 8.7 314 13.2
2006-06-01 04:12:19 51°14.288 2°55.224 316.9 8.7 312 13.2
2006-06-01 04:12:23 51°14.295 2°55.213 316.2 8.8 312 13.2
2006-06-01 04:12:29 51°14.304 2°55.194 315.1 9 309 13.1
2006-06-01 04:12:33 51°14.31 2°55.182 314.2 9 309 13.2
2006-06-01 04:12:39 51°14.32 2°55.162 312.7 9.3 308 13.2
2006-06-01 04:12:43 51°14.326 2°55.149 311.8 9.4 308 13.2
2006-06-01 04:12:48 51°14.334 2°55.134 312 9.1 307 13
2006-06-01 04:12:52 51°14.34 2°55.121 311.5 9.2 307 13.5
2006-06-01 04:12:59 51°14.351 2°55.097 311.5 9.1 308 13.2
2006-06-01 04:13:03 51°14.357 2°55.085 311.6 9.2 308 13.1
2006-06-01 04:13:08 51°14.366 2°55.069 312.2 9.3 309 13.2
2006-06-01 04:13:13 51°14.374 2°55.053 312.8 9.3 310 13.1
2006-06-01 04:13:18 51°14.382 2°55.037 313 9.5 310 13.3
2006-06-01 04:13:23 51°14.391 2°55.021 313 9.7 311 13.3
2006-06-01 04:13:29 51°14.402 2°55.002 313.7 9.8 312 13.2
2006-06-01 04:13:32 51°14.408 2°54.993 314.3 9.9 314 13.4
2006-06-01 04:13:39 51°14.422 2°54.971 314.4 10.2 317 13.3
2006-06-01 04:13:42 51°14.429 2°54.962 315.7 10.3 318 13.1
2006-06-01 04:13:49 51°14.443 2°54.941 316.2 10.4 318 13
2006-06-01 04:13:53 51°14.451 2°54.928 315.3 10.3 315 12.9
2006-06-01 04:13:58 51°14.462 2°54.911 314 10.4 315 12.5
2006-06-01 04:14:03 51°14.472 2°54.894 313.2 10.6 314 12.5
2006-06-01 04:14:09 51°14.485 2°54.874 312.9 10.8 314 12.3
2006-06-01 04:14:13 51°14.493 2°54.86 312.3 10.8 314 12.3
2006-06-01 04:14:19 51°14.506 2°54.839 312.2 11.1 314 12.6
2006-06-01 04:14:23 51°14.515 2°54.825 312.2 11 315 12.2
2006-06-01 04:14:28 51°14.526 2°54.808 312 11.1 315 12.1
2006-06-01 04:14:34 51°14.538 2°54.789 312 11.2 314 11.9
2006-06-01 04:14:39 51°14.548 2°54.772 311.2 10.8 315 11.7
2006-06-01 04:14:43 51°14.557 2°54.757 310 11 312 11.7
2006-06-01 04:14:49 51°14.569 2°54.736 309.9 11.1 312 11.7
2006-06-01 04:14:53 51°14.578 2°54.72 310.2 11 313 11.8
2006-06-01 04:14:57 51°14.587 2°54.705 310.6 11.2 313 12
2006-06-01 04:15:03 51°14.599 2°54.684 310.2 11.4 313 12
2006-06-01 04:15:08 51°14.609 2°54.665 309.9 11.4 312 12
2006-06-01 04:15:13 51°14.62 2°54.645 309.5 11.4 311 12.2
2006-06-01 04:15:19 51°14.633 2°54.624 310 11.5 312 12.2
2006-06-01 04:15:23 51°14.642 2°54.608 310.1 11.5 313 12.2
2006-06-01 04:15:29 51°14.656 2°54.586 310.9 11.6 314 12.2
2006-06-01 04:15:33 51°14.664 2°54.571 311.3 11.6 314 12.2
2006-06-01 04:15:39 51°14.677 2°54.549 310.9 11.7 312 12.3
2006-06-01 04:15:43 51°14.686 2°54.532 311 11.8 311 12.5
2006-06-01 04:15:48 51°14.698 2°54.512 310.7 11.9 312 12.5
2006-06-01 04:15:53 51°14.709 2°54.493 310.2 11.7 311 12.4
2006-06-01 04:15:59 51°14.72 2°54.471 309.3 11.8 312 12.3
2006-06-01 04:16:04 51°14.732 2°54.45 309.5 11.7 311 11.9
2006-06-01 04:16:08 51°14.74 2°54.434 308.8 11.9 310 12.1
2006-06-01 04:16:13 51°14.751 2°54.414 309 11.8 310 12.1
2006-06-01 04:16:19 51°14.764 2°54.39 309.1 11.9 310 12
2006-06-01 04:16:23 51°14.772 2°54.375 309.2 11.8 311 11.8
2006-06-01 04:16:29 51°14.785 2°54.349 308.9 11.6 310 11.6
2006-06-01 04:16:34 51°14.795 2°54.328 306.6 11.9 308 11.6
2006-06-01 04:16:39 51°14.804 2°54.307 304.9 11.9 306 11.8
2006-06-01 04:16:43 51°14.811 2°54.291 303.1 11.8 304 12
2006-06-01 04:16:49 51°14.822 2°54.263 301.2 11.8 301 12
2006-06-01 04:16:53 51°14.829 2°54.246 300.7 11.9 303 12
2006-06-01 04:16:57 51°14.836 2°54.228 300.3 11.9 302 11.9
2006-06-01 04:17:03 51°14.846 2°54.202 299.6 11.7 301 11.8
2006-06-01 04:17:08 51°14.854 2°54.177 298.4 11.7 296 12
2006-06-01 04:17:13 51°14.859 2°54.154 294.5 11.5 293 11.9
2006-06-01 04:17:19 51°14.866 2°54.127 291.5 11.5 291 11.8
2006-06-01 04:17:23 51°14.871 2°54.107 290 11.6 291 11.9
2006-06-01 04:17:29 51°14.878 2°54.078 288.9 11.7 290 11.9
2006-06-01 04:17:33 51°14.881 2°54.058 288.1 11.7 287 11.7
2006-06-01 04:17:39 51°14.886 2°54.028 285.9 11.7 289 11.6
2006-06-01 04:17:43 51°14.89 2°54.008 285.5 11.7 286 11.6
2006-06-01 04:17:49 51°14.895 2°53.979 284.2 11.5 284 11.5
2006-06-01 04:17:53 51°14.897 2°53.959 283.4 11.7 285 11.5
2006-06-01 04:17:59 51°14.902 2°53.929 283.4 11.6 284 11.8
2006-06-01 04:18:03 51°14.905 2°53.908 283 11.6 282 11.9
2006-06-01 04:18:08 51°14.908 2°53.883 282.5 11.7 283 12
2006-06-01 04:18:13 51°14.912 2°53.859 282.4 11.7 283 11.9
2006-06-01 04:18:19 51°14.917 2°53.828 282.7 11.7 283 12.1
2006-06-01 04:18:23 51°14.919 2°53.807 283.1 11.8 281 12
2006-06-01 04:18:29 51°14.924 2°53.778 283 11.8 282 12
2006-06-01 04:18:33 51°14.925 2°53.758 282.5 11.6 279 11.7
2006-06-01 04:18:39 51°14.93 2°53.727 281.5 11.6 281 11.7
2006-06-01 04:18:43 51°14.932 2°53.708 282.3 11.6 282 11.8
2006-06-01 04:18:49 51°14.936 2°53.676 282.1 11.7 281 12
2006-06-01 04:18:53 51°14.939 2°53.657 282.4 11.7 281 12
2006-06-01 04:18:59 51°14.943 2°53.627 282.1 11.6 282 12.2
2006-06-01 04:19:03 51°14.946 2°53.606 282.2 11.7 283 12.2
2006-06-01 04:19:09 51°14.95 2°53.576 282.6 11.9 282 12.3
2006-06-01 04:19:13 51°14.952 2°53.555 282.4 11.8 281 12.5
2006-06-01 04:19:19 51°14.956 2°53.525 282.3 11.7 279 12.1
2006-06-01 04:19:23 51°14.959 2°53.504 282.1 11.8 284 12
2006-06-01 04:19:29 51°14.963 2°53.475 283 11.9 282 12.2
2006-06-01 04:19:33 51°14.967 2°53.453 284 12 284 12.2
2006-06-01 04:19:39 51°14.972 2°53.424 284.9 11.8 286 12.2
2006-06-01 04:19:43 51°14.975 2°53.403 285.8 11.8 285 12.5
2006-06-01 04:19:49 51°14.981 2°53.373 286 11.9 286 12.6
2006-06-01 04:19:53 51°14.984 2°53.353 287 11.8 286 12.6
2006-06-01 04:19:59 51°14.99 2°53.323 286.6 11.8 286 12.6
2006-06-01 04:20:03 51°14.993 2°53.303 287.1 11.7 286 12.6
2006-06-01 04:20:09 51°14.999 2°53.273 287.2 11.9 286 12.6
2006-06-01 04:20:13 51°15.003 2°53.252 287.4 12 287 12.5
2006-06-01 04:20:19 51°15.009 2°53.222 287.8 11.8 288 12.4
2006-06-01 04:20:23 51°15.013 2°53.202 288.9 12 288 12.6
2006-06-01 04:20:29 51°15.02 2°53.174 289.9 11.9 289 12.5
2006-06-01 04:20:33 51°15.025 2°53.154 290.7 12.1 290 12.5
2006-06-01 04:20:39 51°15.032 2°53.125 291.7 11.7 292 12.4
2006-06-01 04:20:43 51°15.037 2°53.106 292.8 11.8 293 12.4
2006-06-01 04:20:49 51°15.044 2°53.077 293.4 11.8 292 12.4
2006-06-01 04:20:53 51°15.05 2°53.058 294 11.9 294 12.5
2006-06-01 04:20:59 51°15.058 2°53.029 293.7 11.8 294 12.5
2006-06-01 04:21:03 51°15.063 2°53.009 293.4 11.9 293 12.6
2006-06-01 04:21:09 51°15.071 2°52.98 293.9 12 294 12.7
2006-06-01 04:21:13 51°15.077 2°52.962 294.6 12 295 12.8
2006-06-01 04:21:19 51°15.084 2°52.932 294.6 11.9 295 12.6
2006-06-01 04:21:23 51°15.09 2°52.914 295.1 11.9 295 12.7
2006-06-01 04:21:29 51°15.099 2°52.885 295.2 11.9 295 12.8
2006-06-01 04:21:33 51°15.104 2°52.867 295.2 12 295 12.8
2006-06-01 04:21:39 51°15.112 2°52.838 294.7 11.9 294 12.8
2006-06-01 04:21:43 51°15.119 2°52.818 295.2 11.9 296 13
2006-06-01 04:21:48 51°15.126 2°52.796 295.9 11.7 295 12.9
2006-06-01 04:21:53 51°15.132 2°52.771 295.3 11.7 295 13
2006-06-01 04:21:59 51°15.14 2°52.742 295.1 11.8 295 13
2006-06-01 04:22:03 51°15.146 2°52.723 294.7 11.9 295 13
2006-06-01 04:22:09 51°15.155 2°52.696 295.1 12 296 13.1
2006-06-01 04:22:13 51°15.161 2°52.676 295.9 11.9 295 13.2
2006-06-01 04:22:19 51°15.17 2°52.647 296 12 296 13.3
2006-06-01 04:22:23 51°15.175 2°52.628 296.1 12 294 13.3
2006-06-01 04:22:28 51°15.182 2°52.604 295.2 12.1 295 13.4
2006-06-01 04:22:33 51°15.188 2°52.578 295 11.7 292 13.3
2006-06-01 04:22:39 51°15.196 2°52.551 293.5 12 293 13.2
2006-06-01 04:22:43 51°15.201 2°52.531 292.9 11.8 292 13.2
2006-06-01 04:22:49 51°15.207 2°52.503 291.6 11.7 292 13.1
2006-06-01 04:22:53 51°15.212 2°52.483 291.1 11.8 291 13.3
2006-06-01 04:22:59 51°15.219 2°52.455 291.1 11.7 292 13.4
2006-06-01 04:23:04 51°15.225 2°52.43 291.5 11.9 292 13.5
2006-06-01 04:23:09 51°15.232 2°52.406 290.6 11.9 292 13.6
2006-06-01 04:23:13 51°15.237 2°52.385 290.3 11.9 290 13.6
2006-06-01 04:23:19 51°15.243 2°52.358 290.9 11.7 293 13.4
2006-06-01 04:23:23 51°15.248 2°52.338 291 11.7 291 13.4
2006-06-01 04:23:29 51°15.256 2°52.309 290.7 11.9 293 13.7
2006-06-01 04:23:33 51°15.261 2°52.29 290.9 11.8 291 13.9
2006-06-01 04:23:39 51°15.267 2°52.261 290.6 11.6 291 14
2006-06-01 04:23:43 51°15.272 2°52.242 290.4 11.7 291 14
2006-06-01 04:23:49 51°15.279 2°52.212 290.3 11.8 291 14.1
2006-06-01 04:23:53 51°15.284 2°52.193 289.7 11.7 291 14.2
2006-06-01 04:23:59 51°15.29 2°52.165 289.5 11.7 290 14.1
2006-06-01 04:24:03 51°15.294 2°52.144 289 11.7 290 14.1
2006-06-01 04:24:08 51°15.3 2°52.119 288.4 11.8 289 14.3
2006-06-01 04:24:13 51°15.304 2°52.096 288.3 11.7 287 14.2
2006-06-01 04:24:19 51°15.31 2°52.066 287.7 11.7 287 14.2
2006-06-01 04:24:24 51°15.315 2°52.041 287.6 11.7 287 14.2
2006-06-01 04:24:29 51°15.32 2°52.017 287.9 11.6 288 14.2
2006-06-01 04:24:33 51°15.324 2°51.997 287.8 11.7 288 14.3
2006-06-01 04:24:39 51°15.33 2°51.968 287.6 11.7 288 14.4
2006-06-01 04:24:43 51°15.335 2°51.947 288 11.8 288 14.6
2006-06-01 04:24:49 51°15.341 2°51.919 287.8 11.8 288 14.6
2006-06-01 04:24:53 51°15.344 2°51.899 288 11.6 289 14.6
2006-06-01 04:24:57 51°15.349 2°51.879 288 11.5 289 14.5
2006-06-01 04:25:03 51°15.354 2°51.851 287.3 11.6 288 14.5
2006-06-01 04:25:09 51°15.36 2°51.821 286.6 11.5 288 14.5
2006-06-01 04:25:13 51°15.365 2°51.801 287.4 11.6 289 14.6
2006-06-01 04:25:19 51°15.371 2°51.772 287.6 11.7 287 14.6
2006-06-01 04:25:23 51°15.374 2°51.753 287.5 11.6 289 14.6
2006-06-01 04:25:29 51°15.381 2°51.722 288 11.7 290 14.7
2006-06-01 04:25:33 51°15.385 2°51.702 288.1 11.8 288 14.9
2006-06-01 04:25:37 51°15.389 2°51.684 288.2 11.7 289 14.9
2006-06-01 04:25:43 51°15.394 2°51.656 288.1 11.6 288 14.9
2006-06-01 04:25:49 51°15.4 2°51.626 287.5 11.2 288 14.7
2006-06-01 04:25:53 51°15.404 2°51.608 287 11.4 287 14.7
2006-06-01 04:25:59 51°15.409 2°51.576 286.9 11.5 286 14.7
2006-06-01 04:26:03 51°15.414 2°51.558 287.6 11.4 289 14.8
2006-06-01 04:26:09 51°15.42 2°51.529 288.3 11.4 289 14.8
2006-06-01 04:26:13 51°15.423 2°51.51 288.2 11.4 288 14.8
2006-06-01 04:26:19 51°15.43 2°51.481 288.3 11.4 289 14.9
2006-06-01 04:26:23 51°15.434 2°51.462 288.1 11.5 288 15
2006-06-01 04:26:29 51°15.44 2°51.432 288 11.6 287 15
2006-06-01 04:26:33 51°15.443 2°51.413 288.4 11.5 286 15.1
2006-06-01 04:26:39 51°15.449 2°51.384 288 11.5 289 14.9
2006-06-01 04:26:43 51°15.453 2°51.364 288.1 11.5 287 15
2006-06-01 04:26:49 51°15.459 2°51.336 287.9 11.4 288 15.1
2006-06-01 04:26:53 51°15.464 2°51.316 288.3 11.5 289 15.1
2006-06-01 04:26:59 51°15.47 2°51.288 288 11.6 289 15.2
2006-06-01 04:27:03 51°15.474 2°51.268 288.6 11.6 289 15.3
2006-06-01 04:27:09 51°15.48 2°51.239 288.7 11.5 288 15.2
2006-06-01 04:27:13 51°15.484 2°51.219 289.2 11.5 291 15.2
2006-06-01 04:27:17 51°15.489 2°51.201 288.9 11.5 292 15
2006-06-01 04:27:23 51°15.495 2°51.172 288.8 11.5 289 15.1
2006-06-01 04:27:29 51°15.501 2°51.143 289.1 11.6 290 15.1
2006-06-01 04:27:33 51°15.506 2°51.123 289.1 11.5 289 15.3
2006-06-01 04:27:39 51°15.513 2°51.095 288.9 11.6 288 15.3
2006-06-01 04:27:43 51°15.517 2°51.075 288.4 11.7 289 15.2
2006-06-01 04:27:49 51°15.523 2°51.046 288.3 11.7 289 15.1
2006-06-01 04:27:53 51°15.526 2°51.026 287.1 11.6 286 15.1
2006-06-01 04:27:59 51°15.532 2°50.997 287.5 11.4 290 14.9
2006-06-01 04:28:03 51°15.536 2°50.979 287.3 11.6 288 15
2006-06-01 04:28:09 51°15.543 2°50.949 287.3 11.5 289 15.2
2006-06-01 04:28:13 51°15.547 2°50.93 288 11.6 289 15.2
2006-06-01 04:28:19 51°15.554 2°50.902 287.7 11.6 289 15.3
2006-06-01 04:28:23 51°15.558 2°50.881 287.9 11.6 289 15.3
2006-06-01 04:28:29 51°15.564 2°50.852 288.1 11.6 290 15.3
2006-06-01 04:28:33 51°15.568 2°50.833 287.6 11.6 288 15.4
2006-06-01 04:28:39 51°15.574 2°50.805 288.1 11.5 288 15.2
2006-06-01 04:28:43 51°15.579 2°50.786 288.3 11.6 290 15.1
2006-06-01 04:28:49 51°15.585 2°50.756 287.5 11.4 288 15
2006-06-01 04:28:53 51°15.588 2°50.736 286.6 11.5 287 15
2006-06-01 04:28:59 51°15.595 2°50.707 287 11.6 289 15.1
2006-06-01 04:29:03 51°15.598 2°50.688 287.2 11.6 287 15.2
2006-06-01 04:29:09 51°15.604 2°50.659 287.8 11.6 291 15.2
2006-06-01 04:29:13 51°15.609 2°50.639 288.3 11.6 289 15.2
2006-06-01 04:29:19 51°15.616 2°50.612 288.4 11.7 291 15.3
2006-06-01 04:29:23 51°15.621 2°50.591 288.8 11.6 290 15.3
2006-06-01 04:29:29 51°15.627 2°50.563 288.7 11.5 291 15.2
2006-06-01 04:29:33 51°15.632 2°50.543 288.6 11.5 290 15.3
2006-06-01 04:29:39 51°15.638 2°50.515 288.9 11.5 289 15.3
2006-06-01 04:29:43 51°15.642 2°50.496 288.3 11.5 290 15.3
2006-06-01 04:29:49 51°15.648 2°50.465 288.1 11.5 288 15.4
2006-06-01 04:29:54 51°15.653 2°50.444 288.2 11.4 289 15.4
2006-06-01 04:29:59 51°15.659 2°50.418 288.3 11.4 289 15.4
2006-06-01 04:30:03 51°15.663 2°50.4 287.7 11.5 290 15.4
2006-06-01 04:30:09 51°15.67 2°50.371 288.1 11.4 289 15.4
2006-06-01 04:30:13 51°15.673 2°50.352 287.9 11.4 289 15.3
2006-06-01 04:30:19 51°15.679 2°50.323 287.6 11.5 290 15.3
2006-06-01 04:30:23 51°15.684 2°50.304 288.1 11.4 290 15.2
2006-06-01 04:30:29 51°15.69 2°50.276 287.8 11.3 290 15.1
2006-06-01 04:30:33 51°15.694 2°50.257 287.4 11.4 289 15.1
2006-06-01 04:30:39 51°15.701 2°50.227 287.5 11.5 291 15.2
2006-06-01 04:30:43 51°15.705 2°50.208 287.1 11.5 287 15.3
2006-06-01 04:30:49 51°15.711 2°50.18 288.2 11.4 290 15.1
2006-06-01 04:30:53 51°15.715 2°50.161 286.8 11.4 285 15.2
2006-06-01 04:30:58 51°15.718 2°50.136 285.6 11.4 284 15.3
2006-06-01 04:31:03 51°15.723 2°50.112 286 11.3 287 15.4
2006-06-01 04:31:09 51°15.727 2°50.082 286.8 11.4 284 15.2
2006-06-01 04:31:13 51°15.733 2°50.063 286.8 11.6 291 15.3
2006-06-01 04:31:19 51°15.737 2°50.034 287.1 11.6 282 15.2
2006-06-01 04:31:23 51°15.741 2°50.015 287.3 11.6 290 15.1
2006-06-01 04:31:29 51°15.746 2°49.985 288 11.4 287 14.9
2006-06-01 04:31:33 51°15.751 2°49.967 287.6 11.6 287 14.7
2006-06-01 04:31:39 51°15.756 2°49.936 287.9 11.6 287 14.6
2006-06-01 04:31:43 51°15.76 2°49.916 287.6 11.7 287 14.6
2006-06-01 04:31:49 51°15.766 2°49.887 288.4 11.6 288 14.6
2006-06-01 04:31:53 51°15.77 2°49.867 288.8 11.6 288 14.4
2006-06-01 04:31:57 51°15.774 2°49.848 289.5 11.7 289 14.1
2006-06-01 04:32:03 51°15.781 2°49.818 289.5 11.8 288 14
2006-06-01 04:32:09 51°15.787 2°49.79 289.7 11.7 289 13.9
2006-06-01 04:32:14 51°15.792 2°49.765 288.3 11.6 287 13.9
2006-06-01 04:32:19 51°15.796 2°49.741 288.6 11.7 288 13.8
2006-06-01 04:32:24 51°15.8 2°49.715 288.1 11.6 287 13.6
2006-06-01 04:32:29 51°15.806 2°49.69 288.1 11.6 288 13.5
2006-06-01 04:32:33 51°15.809 2°49.67 287.9 11.5 285 13.5
2006-06-01 04:32:39 51°15.815 2°49.642 287.9 11.7 286 13.2
2006-06-01 04:32:43 51°15.818 2°49.623 288.8 11.6 287 12.9
2006-06-01 04:32:49 51°15.824 2°49.592 287.4 11.9 285 12.8
2006-06-01 04:32:53 51°15.828 2°49.573 287.3 11.9 289 12.8
2006-06-01 04:32:59 51°15.834 2°49.542 288.5 11.8 290 12.8
2006-06-01 04:33:03 51°15.839 2°49.522 288.5 11.9 288 12.8
2006-06-01 04:33:09 51°15.845 2°49.493 288.9 11.7 290 12.8
2006-06-01 04:33:14 51°15.851 2°49.468 290 11.7 289 13
2006-06-01 04:33:19 51°15.856 2°49.443 288.9 11.7 287 13.1
2006-06-01 04:33:24 51°15.861 2°49.418 288.8 11.8 289 13.2
2006-06-01 04:33:29 51°15.866 2°49.393 289.5 11.7 288 13.2
2006-06-01 04:33:33 51°15.87 2°49.374 288.9 11.6 289 13.2
2006-06-01 04:33:39 51°15.876 2°49.345 289.3 11.6 290 13.2
2006-06-01 04:33:43 51°15.881 2°49.326 289.2 11.6 290 13.1
2006-06-01 04:33:49 51°15.887 2°49.296 288.5 11.6 289 13.1
2006-06-01 04:33:53 51°15.891 2°49.277 288.7 11.7 289 13.1
2006-06-01 04:33:59 51°15.897 2°49.247 288.5 11.6 287 13.1
2006-06-01 04:34:04 51°15.902 2°49.223 288.4 11.6 288 13.3
2006-06-01 04:34:08 51°15.905 2°49.203 288.4 11.7 286 13.4
2006-06-01 04:34:13 51°15.911 2°49.179 288.1 11.6 288 13.5
2006-06-01 04:34:19 51°15.916 2°49.149 288 11.5 287 13.6
2006-06-01 04:34:23 51°15.92 2°49.13 288.1 11.7 288 13.6
2006-06-01 04:34:29 51°15.926 2°49.101 287.4 11.6 289 13.7
2006-06-01 04:34:33 51°15.93 2°49.08 288.1 11.6 286 13.9
2006-06-01 04:34:39 51°15.935 2°49.051 288.8 11.6 288 13.8
2006-06-01 04:34:44 51°15.94 2°49.027 288.5 11.6 288 14
2006-06-01 04:34:48 51°15.945 2°49.008 288.4 11.5 289 14.1
2006-06-01 04:34:53 51°15.949 2°48.985 287.7 11.5 287 14.1
2006-06-01 04:34:59 51°15.955 2°48.954 288.1 11.6 290 14.1
2006-06-01 04:35:03 51°15.959 2°48.935 288.2 11.6 288 14.3
2006-06-01 04:35:09 51°15.965 2°48.906 288.9 11.5 289 14.5
2006-06-01 04:35:13 51°15.97 2°48.887 288.9 11.6 289 14.5
2006-06-01 04:35:18 51°15.975 2°48.863 289.1 11.6 291 14.7
2006-06-01 04:35:23 51°15.979 2°48.837 288.1 11.6 285 14.7
2006-06-01 04:35:29 51°15.985 2°48.808 289 11.6 291 14.9
2006-06-01 04:35:33 51°15.989 2°48.789 288.2 11.5 286 15
2006-06-01 04:35:39 51°15.996 2°48.759 288.1 11.6 289 15.3
2006-06-01 04:35:43 51°15.999 2°48.739 287.5 11.5 285 15.5
2006-06-01 04:35:49 51°16.005 2°48.711 288 11.6 290 15.6
2006-06-01 04:35:53 51°16.009 2°48.691 288 11.6 286 15.8
2006-06-01 04:35:59 51°16.014 2°48.661 288.2 11.7 288 16.1
2006-06-01 04:36:03 51°16.019 2°48.642 288.1 11.7 288 16.3
2006-06-01 04:36:09 51°16.025 2°48.613 288.1 11.8 287 16.6
2006-06-01 04:36:13 51°16.029 2°48.592 288.3 11.6 287 16.8
2006-06-01 04:36:19 51°16.034 2°48.564 288.4 11.7 286 16.8
2006-06-01 04:36:23 51°16.039 2°48.545 289.2 11.5 290 16.6
2006-06-01 04:36:29 51°16.044 2°48.515 288.5 11.5 285 16.7
2006-06-01 04:36:33 51°16.049 2°48.495 287.9 11.6 291 16.9
2006-06-01 04:36:38 51°16.054 2°48.471 288.8 11.4 287 17.1
2006-06-01 04:36:43 51°16.059 2°48.448 288.7 11.4 289 17.1
2006-06-01 04:36:49 51°16.065 2°48.418 288 11.5 287 17.4
2006-06-01 04:36:53 51°16.068 2°48.399 287.2 11.5 287 17.4
2006-06-01 04:36:58 51°16.073 2°48.375 287.3 11.5 289 17.4
2006-06-01 04:37:04 51°16.079 2°48.346 287.4 11.5 287 17.6
2006-06-01 04:37:09 51°16.083 2°48.321 287.4 11.6 288 17.6
2006-06-01 04:37:13 51°16.087 2°48.302 287.3 11.5 285 17.5
2006-06-01 04:37:19 51°16.092 2°48.272 287.4 11.4 287 17.5
2006-06-01 04:37:23 51°16.097 2°48.254 287.4 11.4 290 17.5
2006-06-01 04:37:29 51°16.102 2°48.223 288 11.4 286 17.6
2006-06-01 04:37:34 51°16.107 2°48.2 288 11.5 289 17.7
2006-06-01 04:37:39 51°16.112 2°48.176 287.6 11.4 287 17.8
2006-06-01 04:37:44 51°16.116 2°48.152 287.8 11.4 288 17.9
2006-06-01 04:37:48 51°16.119 2°48.133 287.6 11.4 286 17.8
2006-06-01 04:37:54 51°16.125 2°48.103 287.6 11.5 291 17.7
2006-06-01 04:37:59 51°16.131 2°48.079 287.1 11.5 287 17.7
2006-06-01 04:38:03 51°16.134 2°48.059 288.2 11.5 286 17.7
2006-06-01 04:38:09 51°16.141 2°48.031 288.1 11.6 291 17.7
2006-06-01 04:38:13 51°16.144 2°48.01 288.1 11.6 286 17.9
2006-06-01 04:38:19 51°16.151 2°47.981 288.7 11.5 290 17.9
2006-06-01 04:38:23 51°16.155 2°47.961 288.5 11.7 286 18
2006-06-01 04:38:29 51°16.161 2°47.934 288.5 11.5 291 17.8
2006-06-01 04:38:33 51°16.165 2°47.915 288.7 11.5 285 17.9
2006-06-01 04:38:39 51°16.171 2°47.886 290 11.5 291 17.7
2006-06-01 04:38:41 51°16.173 2°47.877 289.4 11.5 288 17.7
2006-06-01 04:38:49 51°16.182 2°47.838 290 11.5 292 17.3
2006-06-01 04:38:53 51°16.187 2°47.82 289.1 11.5 288 17.2
2006-06-01 04:38:59 51°16.193 2°47.789 289 11.5 289 17.3
2006-06-01 04:39:03 51°16.197 2°47.771 288.8 11.5 290 17.3
2006-06-01 04:39:09 51°16.203 2°47.742 288.6 11.5 287 17.3
2006-06-01 04:39:13 51°16.207 2°47.723 288.5 11.4 290 17
2006-06-01 04:39:19 51°16.213 2°47.694 288.3 11.4 289 16.9
2006-06-01 04:39:24 51°16.218 2°47.671 288.8 11.5 291 17.1
2006-06-01 04:39:29 51°16.224 2°47.646 287.7 11.5 287 16.8
2006-06-01 04:39:33 51°16.228 2°47.627 288 11.5 290 16.7
2006-06-01 04:39:39 51°16.233 2°47.598 288.1 11.3 286 16.6
2006-06-01 04:39:43 51°16.237 2°47.58 287.4 11.4 291 16.5
2006-06-01 04:39:48 51°16.242 2°47.555 286.5 11.4 287 16.4
2006-06-01 04:39:53 51°16.246 2°47.531 287.1 11.3 286 16.2
2006-06-01 04:39:59 51°16.252 2°47.502 285.4 11.3 286 16
2006-06-01 04:40:03 51°16.255 2°47.484 286.4 11.2 286 15.9
2006-06-01 04:40:09 51°16.26 2°47.455 285.1 11.4 283 15.8
2006-06-01 04:40:13 51°16.264 2°47.436 285.9 11.5 288 15.5
2006-06-01 04:40:19 51°16.269 2°47.406 285.5 11.4 284 15.5
2006-06-01 04:40:23 51°16.273 2°47.387 285.8 11.5 289 15.3
2006-06-01 04:40:29 51°16.278 2°47.359 285.9 11.5 284 15.2
2006-06-01 04:40:33 51°16.282 2°47.339 285.9 11.5 289 15.1
2006-06-01 04:40:39 51°16.287 2°47.311 286 11.3 285 14.5
2006-06-01 04:40:43 51°16.291 2°47.292 286.4 11.3 288 13.9
2006-06-01 04:40:49 51°16.296 2°47.262 286.2 11.4 289 14.3
2006-06-01 04:40:53 51°16.299 2°47.243 285.3 11.3 283 14.7
2006-06-01 04:40:58 51°16.304 2°47.219 285.6 11.3 286 14.5
2006-06-01 04:41:03 51°16.309 2°47.195 285 11.4 289 14.5
2006-06-01 04:41:09 51°16.314 2°47.167 285.8 11.4 284 14.5
2006-06-01 04:41:13 51°16.317 2°47.147 285.7 11.4 288 14.2
2006-06-01 04:41:19 51°16.323 2°47.117 285.5 11.5 285 14.1
2006-06-01 04:41:23 51°16.327 2°47.098 286.6 11.5 289 14
2006-06-01 04:41:29 51°16.332 2°47.068 286.1 11.4 285 13.7
2006-06-01 04:41:33 51°16.336 2°47.049 286 11.6 286 13.5
2006-06-01 04:41:39 51°16.342 2°47.019 287.4 11.5 288 13.5
2006-06-01 04:41:43 51°16.346 2°47 287.2 11.5 288 13.2
2006-06-01 04:41:49 51°16.352 2°46.971 288 11.6 287 13
2006-06-01 04:41:53 51°16.355 2°46.953 287.3 11.5 288 12.7
2006-06-01 04:41:57 51°16.359 2°46.932 286.6 11.6 286 12.7
2006-06-01 04:42:03 51°16.365 2°46.903 286.6 11.5 288 12.5
2006-06-01 04:42:09 51°16.37 2°46.874 286.3 11.5 284 12.5
2006-06-01 04:42:13 51°16.374 2°46.854 285.9 11.6 288 12.3
2006-06-01 04:42:19 51°16.38 2°46.824 285.3 11.7 287 12.3
2006-06-01 04:42:24 51°16.384 2°46.8 286.8 11.6 289 12.2
2006-06-01 04:42:28 51°16.388 2°46.78 286.2 11.8 288 12.1
2006-06-01 04:42:33 51°16.392 2°46.755 286.1 11.5 285 12
2006-06-01 04:42:39 51°16.398 2°46.726 287.2 11.6 286 11.7
2006-06-01 04:42:44 51°16.404 2°46.702 286.9 11.6 285 11.5
2006-06-01 04:42:48 51°16.406 2°46.682 287 11.4 284 11.2
2006-06-01 04:42:53 51°16.411 2°46.659 287.8 11.6 289 10.9
2006-06-01 04:42:59 51°16.418 2°46.629 286.7 11.7 289 11
2006-06-01 04:43:04 51°16.423 2°46.604 287.1 11.7 289 11
2006-06-01 04:43:09 51°16.428 2°46.58 287 11.5 288 11.1
2006-06-01 04:43:13 51°16.431 2°46.56 287 11.5 289 11.2
2006-06-01 04:43:19 51°16.438 2°46.531 286.6 11.6 288 11.4
2006-06-01 04:43:24 51°16.442 2°46.505 286.6 11.5 288 11.3
2006-06-01 04:43:29 51°16.446 2°46.481 285.2 11.7 287 11.4
2006-06-01 04:43:33 51°16.45 2°46.461 286.4 11.7 289 11.4
2006-06-01 04:43:39 51°16.456 2°46.433 284.2 11.6 285 11.4
2006-06-01 04:43:43 51°16.459 2°46.412 285.6 11.8 288 11.2
2006-06-01 04:43:49 51°16.465 2°46.384 285.6 11.5 287 11.2
2006-06-01 04:43:53 51°16.468 2°46.363 285.9 11.5 286 11.1
2006-06-01 04:43:56 51°16.472 2°46.349 286.6 11.6 288 10.9
2006-06-01 04:44:03 51°16.478 2°46.314 286.6 11.7 287 10.7
2006-06-01 04:44:09 51°16.484 2°46.286 286.3 11.7 286 10.7
2006-06-01 04:44:13 51°16.487 2°46.265 287.3 11.5 285 10.2
2006-06-01 04:44:19 51°16.493 2°46.236 286.3 11.5 289 10.6
2006-06-01 04:44:23 51°16.496 2°46.216 286.3 11.6 285 11.1
2006-06-01 04:44:28 51°16.501 2°46.193 286.4 11.7 290 11.3
2006-06-01 04:44:33 51°16.506 2°46.167 286.7 11.6 284 11.6
2006-06-01 04:44:39 51°16.511 2°46.137 285.6 11.7 286 11.8
2006-06-01 04:44:44 51°16.515 2°46.113 285.3 11.7 287 12
2006-06-01 04:44:48 51°16.519 2°46.092 285.2 11.8 286 12.2
2006-06-01 04:44:53 51°16.524 2°46.067 285.6 11.9 286 12.3
2006-06-01 04:44:59 51°16.53 2°46.038 286.2 11.7 288 12.3
2006-06-01 04:45:03 51°16.533 2°46.017 286.6 11.8 286 12.4
2006-06-01 04:45:09 51°16.539 2°45.988 286.1 11.8 286 12.5
2006-06-01 04:45:13 51°16.543 2°45.967 286.6 11.8 288 12.5
2006-06-01 04:45:19 51°16.549 2°45.939 287.3 11.8 288 12.4
2006-06-01 04:45:23 51°16.553 2°45.919 287.2 11.8 287 12.5
2006-06-01 04:45:29 51°16.559 2°45.89 287.5 11.8 290 12.3
2006-06-01 04:45:33 51°16.564 2°45.869 288 11.8 288 12.4
2006-06-01 04:45:39 51°16.571 2°45.84 288.8 11.8 290 12.6
2006-06-01 04:45:43 51°16.575 2°45.82 288.8 11.8 289 12.5
2006-06-01 04:45:49 51°16.582 2°45.791 288.8 12 291 12.7
2006-06-01 04:45:53 51°16.586 2°45.771 289.3 11.9 287 13
2006-06-01 04:45:59 51°16.592 2°45.742 289.5 11.7 290 13
2006-06-01 04:46:04 51°16.598 2°45.717 288.8 11.8 289 13
2006-06-01 04:46:08 51°16.603 2°45.698 288.6 11.8 291 13.1
2006-06-01 04:46:13 51°16.607 2°45.672 288.4 11.8 288 13.1
2006-06-01 04:46:19 51°16.614 2°45.642 289.2 11.9 292 13.1
2006-06-01 04:46:23 51°16.619 2°45.623 289.3 11.8 290 13.1
2006-06-01 04:46:28 51°16.625 2°45.599 289.1 11.8 292 13.1
2006-06-01 04:46:33 51°16.63 2°45.574 290.1 11.8 290 13.4
2006-06-01 04:46:39 51°16.637 2°45.546 289.5 11.9 293 13.5
2006-06-01 04:46:44 51°16.643 2°45.521 290.2 11.8 290 13.7
2006-06-01 04:46:48 51°16.647 2°45.501 289.6 11.8 289 13.6
2006-06-01 04:46:54 51°16.654 2°45.471 290.1 11.7 292 13.5
2006-06-01 04:46:59 51°16.661 2°45.447 290.8 11.9 293 13.6
2006-06-01 04:47:04 51°16.667 2°45.422 290.8 11.9 290 13.6
2006-06-01 04:47:08 51°16.671 2°45.402 290.4 12 290 13.9
2006-06-01 04:47:13 51°16.677 2°45.378 291 11.9 291 13.9
2006-06-01 04:47:19 51°16.684 2°45.348 290.3 11.8 289 14.2
2006-06-01 04:47:23 51°16.689 2°45.329 291.5 11.9 292 13.9
2006-06-01 04:47:29 51°16.696 2°45.3 290.7 11.8 291 13.7
2006-06-01 04:47:33 51°16.702 2°45.281 292.4 12 295 13.4
2006-06-01 04:47:39 51°16.71 2°45.252 293.2 12 294 13.3
2006-06-01 04:47:44 51°16.716 2°45.227 293.1 12 294 13.6
2006-06-01 04:47:49 51°16.723 2°45.204 293.6 12 294 13.7
2006-06-01 04:47:53 51°16.729 2°45.183 293 12 293 13.8
2006-06-01 04:47:59 51°16.737 2°45.154 293.6 12.1 293 13.5
2006-06-01 04:48:04 51°16.743 2°45.131 294.8 12 294 13.4
2006-06-01 04:48:08 51°16.749 2°45.111 294.4 12 296 13.5
2006-06-01 04:48:13 51°16.756 2°45.086 294.6 12 295 13.8
2006-06-01 04:48:19 51°16.765 2°45.06 295.3 12.3 296 14
2006-06-01 04:48:24 51°16.773 2°45.035 295.6 12.1 296 13.9
2006-06-01 04:48:29 51°16.782 2°45.012 297.5 12.3 301 13.8
2006-06-01 04:48:33 51°16.788 2°44.994 299.1 12.2 299 13.8
2006-06-01 04:48:39 51°16.799 2°44.965 300 12.2 301 13.6
2006-06-01 04:48:44 51°16.808 2°44.943 300.3 12.2 301 13.7
2006-06-01 04:48:48 51°16.814 2°44.924 300.4 12.3 300 13.7
2006-06-01 04:48:54 51°16.826 2°44.896 301.2 12.4 304 13.8
2006-06-01 04:48:59 51°16.834 2°44.873 301.4 12.3 301 13.8
2006-06-01 04:49:04 51°16.844 2°44.85 301.2 12.3 304 13.6
2006-06-01 04:49:08 51°16.851 2°44.832 301.6 12.2 302 13.8
2006-06-01 04:49:13 51°16.86 2°44.809 301.6 12.2 302 13.8
2006-06-01 04:49:19 51°16.871 2°44.782 301.2 12.2 302 14.2
2006-06-01 04:49:23 51°16.879 2°44.764 300.8 12.2 303 14.8
2006-06-01 04:49:29 51°16.89 2°44.736 301 12.3 302 15.6
2006-06-01 04:49:33 51°16.897 2°44.717 300.4 12.3 301 16.3
2006-06-01 04:49:39 51°16.908 2°44.69 300.3 12.4 302 16.6
2006-06-01 04:49:44 51°16.916 2°44.667 300.2 12.4 300 16.6
2006-06-01 04:49:49 51°16.925 2°44.643 300.2 12.1 302 16.6
2006-06-01 04:49:53 51°16.932 2°44.624 300.8 12.1 301 16.7
2006-06-01 04:49:59 51°16.943 2°44.597 301.2 12.1 302 16.9
2006-06-01 04:50:03 51°16.95 2°44.579 300.5 12.1 301 17
2006-06-01 04:50:09 51°16.961 2°44.551 300.3 12.2 302 17.3
2006-06-01 04:50:13 51°16.968 2°44.532 300.4 12.3 300 17.5
2006-06-01 04:50:19 51°16.978 2°44.504 300.5 12.1 302 17.2
2006-06-01 04:50:23 51°16.986 2°44.486 301.1 12.2 301 17.5
2006-06-01 04:50:29 51°16.996 2°44.459 300.9 12.2 302 17.6
2006-06-01 04:50:32 51°17.001 2°44.445 300.8 12.2 301 17.7
2006-06-01 04:50:39 51°17.013 2°44.413 300.9 12.2 301 17.6
2006-06-01 04:50:43 51°17.021 2°44.394 300.5 12.3 304 18
2006-06-01 04:50:49 51°17.031 2°44.367 300.3 12.1 300 17.7
2006-06-01 04:50:53 51°17.038 2°44.348 300.8 12.3 301 18
2006-06-01 04:50:57 51°17.045 2°44.329 300.9 12.2 300 18.1
2006-06-01 04:51:03 51°17.056 2°44.302 301.1 12.2 303 18.1
2006-06-01 04:51:09 51°17.066 2°44.275 301.3 12.1 302 17.9
2006-06-01 04:51:13 51°17.073 2°44.258 301.2 12.1 302 17.8
2006-06-01 04:51:19 51°17.084 2°44.229 300.2 12 300 17.8
2006-06-01 04:51:23 51°17.09 2°44.211 300.4 12.1 301 17.8
2006-06-01 04:51:29 51°17.101 2°44.183 300.4 12.1 301 17.9
2006-06-01 04:51:34 51°17.109 2°44.16 300.6 12.1 302 17.9
2006-06-01 04:51:39 51°17.119 2°44.138 300.5 12.3 303 17.9
2006-06-01 04:51:43 51°17.125 2°44.119 300.9 12.2 299 17.5
2006-06-01 04:51:48 51°17.134 2°44.095 300.4 12.2 301 17.7
2006-06-01 04:51:54 51°17.144 2°44.067 300.9 12 301 17.2
2006-06-01 04:51:59 51°17.154 2°44.045 301.6 12.2 303 17.3
2006-06-01 04:52:04 51°17.163 2°44.023 300.4 12.1 303 17.4
2006-06-01 04:52:08 51°17.17 2°44.003 301.1 12.3 301 17.6
2006-06-01 04:52:14 51°17.179 2°43.977 301.4 12.2 302 17.5
2006-06-01 04:52:19 51°17.189 2°43.954 300.7 12.1 302 17.4
2006-06-01 04:52:24 51°17.197 2°43.93 300.7 12.1 300 17.5
2006-06-01 04:52:28 51°17.204 2°43.912 300.2 12.2 301 17.7
2006-06-01 04:52:33 51°17.213 2°43.889 300 12.2 300 17.9
2006-06-01 04:52:39 51°17.223 2°43.862 300.3 12.2 301 17.3
2006-06-01 04:52:44 51°17.232 2°43.84 300.4 12.3 301 16.9
2006-06-01 04:52:49 51°17.241 2°43.816 300 12 301 16.7
2006-06-01 04:52:53 51°17.248 2°43.797 300.4 12.1 301 16.9
2006-06-01 04:52:59 51°17.258 2°43.769 301.4 12.3 302 16.9
2006-06-01 04:53:04 51°17.267 2°43.747 300.7 12.1 301 17.3
2006-06-01 04:53:09 51°17.276 2°43.724 300.6 12.1 301 17.2
2006-06-01 04:53:13 51°17.282 2°43.705 300.7 12.1 301 17.3
2006-06-01 04:53:19 51°17.293 2°43.678 300.4 12.3 304 17.7
2006-06-01 04:53:23 51°17.299 2°43.659 300.7 12.1 298 17.4
2006-06-01 04:53:29 51°17.31 2°43.631 300.2 12.2 302 17.5
2006-06-01 04:53:33 51°17.317 2°43.611 299.8 12.1 299 17.2
2006-06-01 04:53:39 51°17.328 2°43.585 300.2 12.3 302 17.2
2006-06-01 04:53:44 51°17.335 2°43.562 300.2 12.3 299 17.4
2006-06-01 04:53:48 51°17.342 2°43.544 300.1 12.1 302 17
2006-06-01 04:53:54 51°17.352 2°43.515 300.7 12.1 301 16.7
2006-06-01 04:53:59 51°17.362 2°43.493 299.5 12.2 303 16.5
2006-06-01 04:54:04 51°17.371 2°43.468 301 12 301 16.1
2006-06-01 04:54:09 51°17.38 2°43.446 300.9 12.1 303 15.9
2006-06-01 04:54:13 51°17.387 2°43.428 301.8 12.1 302 15.1
2006-06-01 04:54:19 51°17.398 2°43.401 300.4 12.3 301 15.1
2006-06-01 04:54:23 51°17.403 2°43.381 301.2 12.2 298 14.4
2006-06-01 04:54:29 51°17.414 2°43.355 300.1 12 299 13.5
2006-06-01 04:54:33 51°17.421 2°43.336 300.1 12 302 13.3
2006-06-01 04:54:39 51°17.432 2°43.31 300.1 12.1 302 14.4
2006-06-01 04:54:44 51°17.44 2°43.288 300.7 12.2 302 14
2006-06-01 04:54:48 51°17.448 2°43.269 300.4 12.1 302 14.7
2006-06-01 04:54:53 51°17.457 2°43.246 300.6 12.2 303 14.5
2006-06-01 04:54:59 51°17.468 2°43.22 301.5 12.1 301 13.6
2006-06-01 04:55:04 51°17.477 2°43.197 300.6 12.1 304 12.2
2006-06-01 04:55:09 51°17.486 2°43.175 301.8 12 305 13.7
2006-06-01 04:55:13 51°17.494 2°43.158 301.2 12 303 14
2006-06-01 04:55:19 51°17.504 2°43.13 301.5 12 303 12.8
2006-06-01 04:55:23 51°17.512 2°43.112 300.6 12 301 13.6
2006-06-01 04:55:29 51°17.522 2°43.085 299.6 12.2 300 13.5
2006-06-01 04:55:33 51°17.529 2°43.066 299.6 12.1 302 13.6
2006-06-01 04:55:39 51°17.539 2°43.04 300.3 11.8 300 13.1
2006-06-01 04:55:43 51°17.547 2°43.021 298.3 12.1 302 12.1
2006-06-01 04:55:49 51°17.557 2°42.995 300.5 11.8 301 13.1
2006-06-01 04:55:53 51°17.564 2°42.977 299.7 11.9 302 13.5
2006-06-01 04:55:58 51°17.573 2°42.955 299.9 12.1 304 14.2
2006-06-01 04:56:03 51°17.582 2°42.933 301.2 11.9 302 14.8
2006-06-01 04:56:09 51°17.594 2°42.906 299.8 12.3 303 15.7
2006-06-01 04:56:14 51°17.603 2°42.883 300.1 12.3 302 16.3
2006-06-01 04:56:19 51°17.611 2°42.859 300.7 12.2 303 17
2006-06-01 04:56:22 51°17.617 2°42.847 299 12 307 18.5
2006-06-01 04:56:29 51°17.629 2°42.812 301 11.8 299 19.7
2006-06-01 04:56:33 51°17.638 2°42.797 300 12.1 303 21.6
2006-06-01 04:56:38 51°17.647 2°42.775 301.5 12.1 301 22.4
2006-06-01 04:56:43 51°17.656 2°42.753 301.8 12.2 305 22.6
2006-06-01 04:56:49 51°17.667 2°42.726 301.2 12.3 303 23.2
2006-06-01 04:56:53 51°17.675 2°42.707 301.4 12.2 303 23.7
2006-06-01 04:56:59 51°17.685 2°42.682 301 12.1 304 23.7
2006-06-01 04:57:04 51°17.695 2°42.659 299.5 12.2 301 24.1
2006-06-01 04:57:09 51°17.703 2°42.635 300.6 12.3 306 24.1
2006-06-01 04:57:13 51°17.712 2°42.62 299.7 12 305 24.1
2006-06-01 04:57:19 51°17.723 2°42.59 299.2 12 302 24.4
2006-06-01 04:57:23 51°17.73 2°42.574 300.4 12 305 24.5
2006-06-01 04:57:29 51°17.741 2°42.546 300.2 12.1 303 24.7
2006-06-01 04:57:33 51°17.748 2°42.529 300 12.1 302 25
2006-06-01 04:57:39 51°17.758 2°42.5 298.4 12 299 24.9
2006-06-01 04:57:44 51°17.766 2°42.477 297.9 12.2 300 25.2
2006-06-01 04:57:49 51°17.775 2°42.453 298.3 12.3 300 25.3
2006-06-01 04:57:52 51°17.78 2°42.439 299 12.2 301 25.6
2006-06-01 04:57:57 51°17.788 2°42.416 299.2 12.1 300 25.8
2006-06-01 04:58:03 51°17.799 2°42.388 299.7 12.1 302 25.8
2006-06-01 04:58:09 51°17.809 2°42.36 299.7 12.2 302 26.1
2006-06-01 04:58:13 51°17.816 2°42.342 299.6 12.2 300 26.1
2006-06-01 04:58:19 51°17.826 2°42.314 298.8 12.2 300 26.1
2006-06-01 04:58:24 51°17.835 2°42.29 299.7 12.2 301 26.1
2006-06-01 04:58:29 51°17.843 2°42.267 298.8 12 298 26.3
2006-06-01 04:58:33 51°17.85 2°42.249 299.6 12.1 302 26
2006-06-01 04:58:39 51°17.861 2°42.221 301 12.2 302 26.1
2006-06-01 04:58:43 51°17.867 2°42.203 300.8 12.1 299 26.1
2006-06-01 04:58:49 51°17.878 2°42.177 301.2 12.1 303 26
2006-06-01 04:58:53 51°17.885 2°42.159 301.2 12.1 302 26
2006-06-01 04:58:59 51°17.895 2°42.132 300.5 12.2 301 26
2006-06-01 04:59:03 51°17.902 2°42.113 300.8 12.2 301 26.1
2006-06-01 04:59:09 51°17.913 2°42.085 300.2 12.2 300 26.2
2006-06-01 04:59:13 51°17.92 2°42.066 300.5 12.2 302 26.4
2006-06-01 04:59:17 51°17.926 2°42.047 300.3 12.2 300 26.5
2006-06-01 04:59:23 51°17.937 2°42.02 300.6 12.2 300 26.3
2006-06-01 04:59:28 51°17.946 2°41.997 301.3 12.2 302 26
2006-06-01 04:59:33 51°17.955 2°41.975 300.7 12.3 301 25.9
2006-06-01 04:59:39 51°17.965 2°41.946 299.9 12.1 300 25.9
2006-06-01 04:59:43 51°17.972 2°41.928 299.8 12.3 301 25.8
2006-06-01 04:59:49 51°17.982 2°41.901 299.7 12.3 302 25.9
2006-06-01 04:59:53 51°17.989 2°41.882 299.9 12.3 300 25.9
2006-06-01 04:59:56 51°17.994 2°41.868 299.9 12.4 301 26
2006-06-01 05:00:03 51°18.006 2°41.836 301.3 12.3 303 25.7
2006-06-01 05:00:09 51°18.018 2°41.808 300.3 12.3 303 25.8
2006-06-01 05:00:13 51°18.024 2°41.789 301.1 12.3 300 25.8
2006-06-01 05:00:19 51°18.036 2°41.761 300.4 12.3 302 25.8
2006-06-01 05:00:23 51°18.042 2°41.742 301.1 12.2 299 25.7
2006-06-01 05:00:29 51°18.053 2°41.715 300.4 12.3 300 25.2
2006-06-01 05:00:34 51°18.062 2°41.693 300.2 12.2 301 25.2
2006-06-01 05:00:39 51°18.071 2°41.669 300.4 12.2 298 25.1
2006-06-01 05:00:42 51°18.075 2°41.655 300.4 12.2 300 24.9
2006-06-01 05:00:48 51°18.086 2°41.627 300.4 12.2 301 25.2
2006-06-01 05:00:53 51°18.095 2°41.604 300.2 12.1 301 24.8
2006-06-01 05:00:59 51°18.105 2°41.577 299.8 12.4 300 25.2
2006-06-01 05:01:03 51°18.111 2°41.558 300.1 12.3 299 24.8
2006-06-01 05:01:08 51°18.12 2°41.535 299.7 12.2 302 24.4
2006-06-01 05:01:13 51°18.129 2°41.512 300.2 12.2 300 24.2
2006-06-01 05:01:19 51°18.139 2°41.484 300.2 12.3 300 23.4
2006-06-01 05:01:23 51°18.146 2°41.465 301.1 12.2 302 23
2006-06-01 05:01:29 51°18.157 2°41.438 300.9 12.3 303 23
2006-06-01 05:01:32 51°18.162 2°41.423 301 12.2 300 22.7
2006-06-01 05:01:39 51°18.174 2°41.394 300.4 12.2 301 22.9
2006-06-01 05:01:43 51°18.181 2°41.375 300.2 12.2 301 23.2
2006-06-01 05:01:49 51°18.191 2°41.346 300.5 12 300 22.8
2006-06-01 05:01:53 51°18.199 2°41.329 300 12.1 300 23.2
2006-06-01 05:01:59 51°18.209 2°41.301 300.3 12 300 23.1
2006-06-01 05:02:04 51°18.217 2°41.279 299.7 12.2 302 23.5
2006-06-01 05:02:09 51°18.226 2°41.256 300.8 12.1 301 23.2
2006-06-01 05:02:13 51°18.233 2°41.236 300.8 12.1 301 22.9
2006-06-01 05:02:19 51°18.244 2°41.21 301.2 12.3 304 20.5
2006-06-01 05:02:23 51°18.251 2°41.191 300.9 12.2 301 20.9
2006-06-01 05:02:29 51°18.262 2°41.163 300.5 12.2 302 21.5
2006-06-01 05:02:33 51°18.269 2°41.144 300.4 12.2 301 21.4
2006-06-01 05:02:39 51°18.279 2°41.118 301.3 12 302 19.9
2006-06-01 05:02:43 51°18.286 2°41.1 300.2 12 301 20.8
2006-06-01 05:02:48 51°18.294 2°41.076 299.7 12 299 21.5
2006-06-01 05:02:53 51°18.303 2°41.055 301 12.1 305 21.1
2006-06-01 05:02:59 51°18.313 2°41.026 299.7 12 299 20.9
2006-06-01 05:03:03 51°18.321 2°41.009 300.2 12.2 304 20.6
2006-06-01 05:03:08 51°18.329 2°40.984 300.3 12.2 299 19.8
2006-06-01 05:03:13 51°18.339 2°40.962 300.1 12.3 304 16.8
2006-06-01 05:03:19 51°18.349 2°40.935 300.6 12 301 18.1
2006-06-01 05:03:23 51°18.356 2°40.916 300.2 12.1 301 17.2
2006-06-01 05:03:29 51°18.366 2°40.889 300.9 12.1 300 17.1
2006-06-01 05:03:33 51°18.373 2°40.871 301.1 12 305 17.6
2006-06-01 05:03:39 51°18.384 2°40.844 301.2 12 301 17.2
2006-06-01 05:03:44 51°18.393 2°40.821 301.5 12 303 15.3
2006-06-01 05:03:49 51°18.402 2°40.798 300.4 12.1 300 18
2006-06-01 05:03:53 51°18.409 2°40.78 301 12 303 19.8
2006-06-01 05:03:59 51°18.419 2°40.754 300.2 12.1 300 19.8
2006-06-01 05:04:03 51°18.426 2°40.734 300.5 12.2 301 20.2
2006-06-01 05:04:09 51°18.436 2°40.707 299.5 12.2 302 20.6
2006-06-01 05:04:13 51°18.443 2°40.688 300 12.1 300 20.9
2006-06-01 05:04:17 51°18.45 2°40.67 299.6 12.2 300 21.6
2006-06-01 05:04:23 51°18.461 2°40.642 300.4 12.1 302 19.4
2006-06-01 05:04:28 51°18.47 2°40.62 300.1 12.2 302 14.3
2006-06-01 05:04:33 51°18.48 2°40.597 299.6 12.2 305 16.6
2006-06-01 05:04:37 51°18.485 2°40.577 300.9 12.1 297 18.8
2006-06-01 05:04:43 51°18.497 2°40.551 300.2 12.2 304 19.7
2006-06-01 05:04:49 51°18.506 2°40.524 300.5 12.1 298 19.8
2006-06-01 05:04:53 51°18.514 2°40.506 299.7 12.1 304 18.4
2006-06-01 05:04:59 51°18.524 2°40.479 300.5 11.9 299 14.8
2006-06-01 05:05:03 51°18.531 2°40.461 300.2 11.9 302 15.1
2006-06-01 05:05:08 51°18.54 2°40.438 301.1 11.9 305 16.4
2006-06-01 05:05:13 51°18.549 2°40.418 300.8 11.8 302 15.7
2006-06-01 05:05:19 51°18.56 2°40.39 301.1 11.8 304 13.5
2006-06-01 05:05:23 51°18.567 2°40.372 301.2 11.9 303 15.9
2006-06-01 05:05:29 51°18.578 2°40.347 301.2 11.8 303 19.6
2006-06-01 05:05:33 51°18.585 2°40.329 301.6 11.9 303 21.8
2006-06-01 05:05:39 51°18.597 2°40.304 301.3 12 307 23.1
2006-06-01 05:05:43 51°18.603 2°40.287 300.6 11.7 301 23.5
2006-06-01 05:05:49 51°18.614 2°40.259 300.4 11.8 302 24.1
2006-06-01 05:05:53 51°18.621 2°40.242 299.6 11.9 301 24.2
2006-06-01 05:05:59 51°18.632 2°40.214 299.3 12 302 24.7
2006-06-01 05:06:04 51°18.641 2°40.192 300.2 12 303 24.7
2006-06-01 05:06:09 51°18.65 2°40.17 299.7 12 302 25.8
2006-06-01 05:06:13 51°18.658 2°40.152 300.3 12.1 305 25.9
2006-06-01 05:06:17 51°18.665 2°40.134 300.2 12.1 303 26.2
2006-06-01 05:06:23 51°18.676 2°40.108 300.2 12.1 304 25.9
2006-06-01 05:06:28 51°18.686 2°40.085 300.4 12.1 303 26.1
2006-06-01 05:06:33 51°18.695 2°40.063 299.9 12.1 303 26.2
2006-06-01 05:06:39 51°18.706 2°40.034 300.1 12 302 25.9
2006-06-01 05:06:43 51°18.714 2°40.017 299.4 12 304 26
2006-06-01 05:06:49 51°18.725 2°39.991 300.8 12.1 304 26.3
2006-06-01 05:06:53 51°18.732 2°39.973 300.6 12.1 303 25.8
2006-06-01 05:06:56 51°18.737 2°39.959 299.7 12.1 304 26.4
2006-06-01 05:07:03 51°18.75 2°39.926 299.7 12.1 302 25.9
2006-06-01 05:07:09 51°18.76 2°39.9 299.9 12.1 304 25.8
2006-06-01 05:07:13 51°18.768 2°39.882 298.6 12.1 301 25.8
2006-06-01 05:07:19 51°18.779 2°39.855 299.8 12.3 305 25.8
2006-06-01 05:07:23 51°18.786 2°39.837 300.6 12.1 303 25.8
2006-06-01 05:07:28 51°18.797 2°39.815 301.6 12.2 306 26
2006-06-01 05:07:32 51°18.805 2°39.797 301.2 12.2 304 25.9
2006-06-01 05:07:39 51°18.818 2°39.766 302.1 12.2 306 25.9
2006-06-01 05:07:43 51°18.827 2°39.749 301.2 12.4 306 25.9
2006-06-01 05:07:48 51°18.836 2°39.727 302.2 12.3 306 25.9
2006-06-01 05:07:52 51°18.845 2°39.709 301.9 12.3 306 26.1
2006-06-01 05:07:59 51°18.858 2°39.678 301.9 12.3 306 26
2006-06-01 05:08:03 51°18.865 2°39.66 301.6 12.2 303 26
2006-06-01 05:08:09 51°18.878 2°39.632 301.9 12.3 306 26.2
2006-06-01 05:08:13 51°18.884 2°39.615 301.5 12.2 302 26.3
2006-06-01 05:08:19 51°18.897 2°39.587 301.3 12.4 303 26.3
2006-06-01 05:08:24 51°18.905 2°39.564 301.5 12.3 301 26.3
2006-06-01 05:08:29 51°18.915 2°39.541 301.1 12.4 303 26.5
2006-06-01 05:08:33 51°18.922 2°39.521 301.2 12.4 302 26.8
2006-06-01 05:08:39 51°18.933 2°39.495 301.2 12.3 302 26.8
2006-06-01 05:08:43 51°18.94 2°39.476 301.7 12.4 302 27
2006-06-01 05:08:49 51°18.952 2°39.45 301.9 12.4 305 27
2006-06-01 05:08:53 51°18.96 2°39.432 302.6 12.3 305 27.1
2006-06-01 05:08:59 51°18.971 2°39.405 302.4 12.4 304 27.2
2006-06-01 05:09:03 51°18.979 2°39.387 303.2 12.4 305 27.5
2006-06-01 05:09:09 51°18.99 2°39.358 302.1 12.5 302 27.7
2006-06-01 05:09:13 51°18.998 2°39.34 302.6 12.5 305 27.9
2006-06-01 05:09:19 51°19.008 2°39.311 302 12.5 300 28.2
2006-06-01 05:09:23 51°19.016 2°39.294 302.5 12.5 306 28.1
2006-06-01 05:09:29 51°19.028 2°39.266 303.2 12.4 304 28.5
2006-06-01 05:09:32 51°19.034 2°39.253 303.6 12.5 305 28.5
2006-06-01 05:09:39 51°19.047 2°39.221 303.3 12.4 303 28.7
2006-06-01 05:09:43 51°19.054 2°39.202 302.4 12.4 303 28.7
2006-06-01 05:09:48 51°19.064 2°39.178 302.7 12.5 303 29
2006-06-01 05:09:52 51°19.071 2°39.159 302.6 12.4 302 29.1
2006-06-01 05:09:59 51°19.084 2°39.127 301.8 12.2 301 29.3
2006-06-01 05:10:03 51°19.091 2°39.109 301.9 12.3 303 29.4
2006-06-01 05:10:08 51°19.1 2°39.085 302 12.4 301 29.5
2006-06-01 05:10:13 51°19.109 2°39.065 302.2 12.4 304 29.5
2006-06-01 05:10:19 51°19.12 2°39.035 302.1 12.3 302 29.6
2006-06-01 05:10:24 51°19.13 2°39.012 302 12.4 304 29.8
2006-06-01 05:10:29 51°19.139 2°38.989 303.7 12.5 303 29.7
2006-06-01 05:10:33 51°19.147 2°38.971 302.6 12.5 303 29.9
2006-06-01 05:10:39 51°19.159 2°38.943 302.9 12.7 303 30.2
2006-06-01 05:10:44 51°19.168 2°38.92 303.5 12.6 304 30
2006-06-01 05:10:49 51°19.177 2°38.897 302 12.5 302 30
2006-06-01 05:10:53 51°19.185 2°38.878 302.4 12.5 302 30
2006-06-01 05:10:56 51°19.19 2°38.863 302 12.5 301 30.1
2006-06-01 05:11:04 51°19.205 2°38.827 302.2 12.3 301 29.9
2006-06-01 05:11:09 51°19.214 2°38.802 302.4 12.4 301 29.6
2006-06-01 05:11:13 51°19.222 2°38.784 302.6 12.4 303 29.4
2006-06-01 05:11:17 51°19.229 2°38.766 302.3 12.4 301 29.3
2006-06-01 05:11:24 51°19.241 2°38.733 301.9 12.5 301 29.8
2006-06-01 05:11:28 51°19.249 2°38.714 301.8 12.6 302 29.6
2006-06-01 05:11:33 51°19.258 2°38.69 301.9 12.5 301 29.6
2006-06-01 05:11:39 51°19.269 2°38.662 302.2 12.5 303 29.4
2006-06-01 05:11:43 51°19.276 2°38.644 302.1 12.6 302 28.9
2006-06-01 05:11:49 51°19.287 2°38.616 302.6 12.5 304 29.1
2006-06-01 05:11:53 51°19.295 2°38.598 302.5 12.5 303 29
2006-06-01 05:11:59 51°19.306 2°38.57 302.4 12.4 304 28.6
2006-06-01 05:12:03 51°19.314 2°38.551 302.4 12.6 302 27.8
2006-06-01 05:12:08 51°19.323 2°38.529 302.8 12.5 303 27.9
2006-06-01 05:12:13 51°19.332 2°38.505 302.3 12.4 302 27.6
2006-06-01 05:12:19 51°19.343 2°38.475 302.4 12.5 301 27.5
2006-06-01 05:12:23 51°19.351 2°38.458 302.1 12.4 302 27.2
2006-06-01 05:12:29 51°19.362 2°38.43 302.1 12.5 300 26.6
2006-06-01 05:12:32 51°19.368 2°38.417 302.6 12.5 305 26.3
2006-06-01 05:12:39 51°19.38 2°38.384 303 12.4 303 26.5
2006-06-01 05:12:42 51°19.387 2°38.37 302.2 12.5 304 26.1
2006-06-01 05:12:49 51°19.4 2°38.337 302.5 12.6 302 26.2
2006-06-01 05:12:53 51°19.407 2°38.319 302.8 12.5 302 26
2006-06-01 05:12:58 51°19.416 2°38.297 302.7 12.3 302 25.1
2006-06-01 05:13:04 51°19.428 2°38.267 301.7 12.4 302 24.8
2006-06-01 05:13:09 51°19.437 2°38.245 302 12.4 303 23.7
2006-06-01 05:13:13 51°19.444 2°38.227 302.6 12.4 304 24.1
2006-06-01 05:13:16 51°19.45 2°38.214 302.6 12.4 303 24.8
2006-06-01 05:13:24 51°19.465 2°38.176 302.4 12.3 303 24.9
2006-06-01 05:13:29 51°19.474 2°38.153 302.4 12.4 302 24.3
2006-06-01 05:13:33 51°19.482 2°38.134 302 12.4 303 23.8
2006-06-01 05:13:37 51°19.49 2°38.116 303.4 12.4 304 22.4
2006-06-01 05:13:44 51°19.502 2°38.083 301.9 12.4 302 23.7
2006-06-01 05:13:49 51°19.511 2°38.061 301.9 12.4 303 23.5
2006-06-01 05:13:53 51°19.519 2°38.043 301.9 12.3 301 24.1
2006-06-01 05:13:59 51°19.529 2°38.015 301.7 12.2 302 23.6
2006-06-01 05:14:03 51°19.538 2°37.997 301.4 12.4 304 23.2
2006-06-01 05:14:09 51°19.548 2°37.97 302.3 12.2 303 21.3
2006-06-01 05:14:13 51°19.556 2°37.951 302.5 12.3 303 22.9
2006-06-01 05:14:19 51°19.567 2°37.925 302.5 12.1 303 23.5
2006-06-01 05:14:23 51°19.574 2°37.908 302.3 11.3 303 23.9
2006-06-01 05:14:29 51°19.583 2°37.885 302.2 10.8 304 23.3
2006-06-01 05:14:32 51°19.587 2°37.874 302 10 302 23.2
2006-06-01 05:14:39 51°19.598 2°37.851 302.3 9.1 304 23.6
2006-06-01 05:14:43 51°19.603 2°37.838 302.6 8.4 304 23.9
2006-06-01 05:14:48 51°19.609 2°37.824 303.2 7.9 304 23.7
2006-06-01 05:14:53 51°19.615 2°37.811 303.2 7.5 309 23.3
2006-06-01 05:14:59 51°19.623 2°37.796 303.6 7.1 309 23.2
2006-06-01 05:15:04 51°19.629 2°37.784 303.3 6.7 306 23.5
2006-06-01 05:15:09 51°19.633 2°37.773 303.8 6.4 306 22.7
2006-06-01 05:15:13 51°19.638 2°37.766 303.3 6.3 309 22.4
2006-06-01 05:15:18 51°19.643 2°37.755 302.8 5.8 309 21.5
2006-06-01 05:15:24 51°19.648 2°37.743 302.2 5.7 309 20.8
2006-06-01 05:15:29 51°19.653 2°37.734 303.6 5.5 312 21.2
2006-06-01 05:15:33 51°19.657 2°37.726 303.6 5.3 305 22
2006-06-01 05:15:39 51°19.662 2°37.716 303.9 5.3 315 22.9
2006-06-01 05:15:43 51°19.666 2°37.709 303.8 5 307 23.3
2006-06-01 05:15:49 51°19.671 2°37.701 303.8 4.8 312 23.6
2006-06-01 05:15:53 51°19.674 2°37.694 303.4 4.7 307 23.7
2006-06-01 05:15:59 51°19.68 2°37.684 302.6 4.7 313 24
2006-06-01 05:16:04 51°19.683 2°37.676 302.8 4.4 304 24.4
2006-06-01 05:16:09 51°19.687 2°37.668 302 4.5 310 24.2
2006-06-01 05:16:13 51°19.69 2°37.662 301.2 4.4 306 24.5
2006-06-01 05:16:19 51°19.694 2°37.654 300.2 4.3 307 24.1
2006-06-01 05:16:23 51°19.697 2°37.647 299.7 4.3 307 23.9
2006-06-01 05:16:28 51°19.7 2°37.641 300.3 4.1 308 23.1
2006-06-01 05:16:33 51°19.705 2°37.634 300.4 4.1 310 22.9
2006-06-01 05:16:39 51°19.708 2°37.626 300.9 4 314 22.9
2006-06-01 05:16:43 51°19.711 2°37.62 301.9 4.1 315 22.5
2006-06-01 05:16:48 51°19.715 2°37.614 301.7 3.9 310 22.5
2006-06-01 05:16:53 51°19.718 2°37.607 301.5 4 311 23.1
2006-06-01 05:16:59 51°19.723 2°37.599 301.4 3.8 306 23.4
2006-06-01 05:17:03 51°19.725 2°37.593 300.7 3.8 302 23.6
2006-06-01 05:17:09 51°19.729 2°37.586 301.1 3.8 309 23.6
2006-06-01 05:17:13 51°19.733 2°37.582 301.8 3.9 314 23
2006-06-01 05:17:19 51°19.737 2°37.574 301.3 3.8 317 23.4
2006-06-01 05:17:24 51°19.74 2°37.567 302.5 3.9 320 23
2006-06-01 05:17:29 51°19.744 2°37.562 303.3 3.8 315 23.3
2006-06-01 05:17:33 51°19.746 2°37.556 303.2 3.8 314 23.5
2006-06-01 05:17:39 51°19.751 2°37.551 304.1 3.6 311 23.9
2006-06-01 05:17:43 51°19.754 2°37.546 304 3.4 312 24.2
2006-06-01 05:17:49 51°19.758 2°37.54 303.5 3.4 320 24.1
2006-06-01 05:17:53 51°19.761 2°37.536 304.3 3.3 314 24.2
2006-06-01 05:17:59 51°19.764 2°37.53 304.3 3.4 320 24.4
2006-06-01 05:18:04 51°19.768 2°37.525 304.7 3.2 316 24
2006-06-01 05:18:09 51°19.771 2°37.521 304.2 3.2 323 24
2006-06-01 05:18:13 51°19.774 2°37.518 305.3 2.9 318 24.2
2006-06-01 05:18:18 51°19.776 2°37.514 305.5 2.8 319 23.9
2006-06-01 05:18:23 51°19.78 2°37.51 306 2.9 324 23.7
2006-06-01 05:18:28 51°19.783 2°37.506 305.9 2.8 319 23.6
2006-06-01 05:18:33 51°19.786 2°37.502 305.7 2.9 325 23.7
2006-06-01 05:18:38 51°19.789 2°37.498 305.3 2.7 314 23.9
2006-06-01 05:18:43 51°19.793 2°37.494 304.9 2.9 328 23.7
2006-06-01 05:18:48 51°19.795 2°37.491 305.3 2.7 321 23.7
2006-06-01 05:18:53 51°19.798 2°37.488 304.3 2.7 319 23.8
2006-06-01 05:18:59 51°19.801 2°37.483 303.6 2.6 318 23.9
2006-06-01 05:19:03 51°19.803 2°37.48 302.8 2.5 318 23.9
2006-06-01 05:19:08 51°19.806 2°37.476 302.4 2.5 320 23.7
2006-06-01 05:19:13 51°19.808 2°37.473 302.4 2.5 324 23.8
2006-06-01 05:19:19 51°19.811 2°37.469 302.1 2.3 314 24
2006-06-01 05:19:23 51°19.814 2°37.466 301.8 2.5 324 24
2006-06-01 05:19:28 51°19.816 2°37.463 301.3 2.3 318 24.1
2006-06-01 05:19:33 51°19.819 2°37.459 301.3 2.5 323 24
2006-06-01 05:19:37 51°19.821 2°37.457 300.6 2.6 325 24
2006-06-01 05:19:44 51°19.824 2°37.452 299.8 2.3 320 24
2006-06-01 05:19:49 51°19.827 2°37.449 299.1 2.6 326 24.2
2006-06-01 05:19:53 51°19.828 2°37.446 299.5 2.3 313 24.2
2006-06-01 05:19:58 51°19.831 2°37.443 298.8 2.3 318 24.3
2006-06-01 05:20:04 51°19.833 2°37.438 298.9 2.2 316 24
2006-06-01 05:20:09 51°19.836 2°37.435 298.3 2.2 319 24.4
2006-06-01 05:20:13 51°19.837 2°37.433 297.6 2.2 320 24.6
2006-06-01 05:20:19 51°19.84 2°37.429 296.4 2.1 314 24.3
2006-06-01 05:20:24 51°19.842 2°37.425 295.8 2.1 314 24.1
2006-06-01 05:20:28 51°19.844 2°37.423 295.3 2.1 316 24.1
2006-06-01 05:20:34 51°19.846 2°37.419 294.2 2 308 24.4
2006-06-01 05:20:38 51°19.847 2°37.416 293.1 2 315 24.5
2006-06-01 05:20:44 51°19.849 2°37.412 292.5 1.9 302 24.1
2006-06-01 05:20:49 51°19.851 2°37.409 292.2 2.1 316 24.3